N8QF Weather Reports


time (UTC)temp
C
wind
direction
speed
KPH
gust
KPH
rain 1hr
cm
rain 24hr
cm
rain mn
cm
humidity
%
barometer
mb
20260508005246 11 0 0.0 0.0 0.00 0.00 0.00 58 1013.3
20260508004745 12 0 0.0 0.0 0.00 0.00 0.00 52 1013.2
20260508004244 12 0 0.0 0.0 0.00 0.00 0.00 49 1013.2
20260508003744 13 249 0.0 1.6 0.00 0.00 0.00 47 1013.2
20260508003243 13 224 0.0 3.2 0.00 0.00 0.00 44 1013.2
20260508002743 13 222 1.6 3.2 0.00 0.00 0.00 43 1013.1
20260508002242 13 246 3.2 6.4 0.00 0.00 0.00 43 1013.0
20260508001742 13 228 4.8 9.7 0.00 0.00 0.00 42 1013.0
20260508001241 13 231 4.8 11.3 0.00 0.00 0.00 41 1013.0
20260508000741 13 219 4.8 6.4 0.00 0.00 0.00 41 1013.1
20260508000242 13 228 4.8 9.7 0.00 0.00 0.00 40 1013.0
20260507235239 14 229 6.4 11.3 0.00 0.00 0.00 41 1013.0
20260507234738 14 222 4.8 12.9 0.00 0.00 0.00 40 1013.1
20260507234238 14 224 4.8 14.5 0.00 0.00 0.00 41 1013.0
20260507233737 14 302 4.8 14.5 0.00 0.00 0.00 39 1013.0
20260507233237 15 278 6.4 14.5 0.00 0.00 0.00 40 1013.0
20260507232736 15 210 6.4 14.5 0.00 0.00 0.00 40 1012.9
20260507232236 15 269 6.4 16.1 0.00 0.00 0.00 38 1012.9
20260507231737 15 262 4.8 12.9 0.00 0.00 0.00 38 1012.9
20260507231236 15 291 3.2 6.4 0.00 0.00 0.00 40 1012.9
20260507230735 15 267 1.6 8.0 0.00 0.00 0.00 39 1012.9
20260507230235 15 284 4.8 9.7 0.00 0.00 0.00 38 1012.9
20260507225735 15 228 4.8 12.9 0.00 0.00 0.00 38 1012.9
20260507225235 16 235 3.2 9.7 0.00 0.00 0.00 37 1012.8
20260507224735 15 243 1.6 9.7 0.00 0.00 0.00 37 1012.8
20260507224234 15 315 4.8 11.3 0.00 0.00 0.00 37 1012.8
20260507223734 15 340 3.2 11.3 0.00 0.00 0.00 41 1012.8
20260507223234 15 338 1.6 4.8 0.00 0.00 0.00 38 1012.8
20260507222731 16 17 3.2 9.7 0.00 0.00 0.00 39 1012.9
20260507222231 16 305 3.2 8.0 0.00 0.00 0.00 37 1013.0
20260507221731 15 307 3.2 8.0 0.00 0.00 0.00 39 1013.1
20260507221227 15 281 3.2 9.7 0.00 0.00 0.00 39 1013.1
20260507220727 15 335 6.4 16.1 0.00 0.00 0.00 39 1013.1
20260507220226 15 288 4.8 11.3 0.00 0.00 0.00 38 1013.2
20260507215725 15 284 6.4 17.7 0.00 0.00 0.00 39 1013.2
20260507215224 15 274 4.8 12.9 0.00 0.00 0.00 38 1013.2
20260507214724 15 266 3.2 9.7 0.00 0.00 0.00 37 1013.2
20260507214223 15 307 4.8 12.9 0.00 0.00 0.00 37 1013.2
20260507213723 15 278 8.0 17.7 0.00 0.00 0.00 42 1013.2
20260507213223 15 343 8.0 16.1 0.00 0.00 0.00 38 1013.2
20260507212722 15 260 4.8 11.3 0.00 0.00 0.00 39 1013.2
20260507211721 15 277 8.0 16.1 0.00 0.00 0.00 36 1013.2
20260507211220 16 226 8.0 17.7 0.00 0.00 0.00 40 1013.2
20260507210720 16 278 6.4 17.7 0.00 0.00 0.00 41 1013.2
20260507210219 15 342 6.4 17.7 0.00 0.00 0.00 44 1013.2
20260507205719 15 342 4.8 8.0 0.00 0.00 0.00 42 1013.2
20260507205218 15 257 8.0 16.1 0.00 0.00 0.00 38 1013.2
20260507204718 15 291 4.8 14.5 0.00 0.00 0.00 40 1013.1
20260507204218 15 285 9.7 19.3 0.00 0.00 0.00 39 1013.1
20260507203717 15 298 11.3 20.9 0.00 0.00 0.00 38 1013.1
20260507203217 15 256 8.0 17.7 0.00 0.00 0.00 39 1013.0
20260507202717 15 308 6.4 16.1 0.00 0.00 0.00 40 1013.1
20260507202216 15 273 11.3 19.3 0.00 0.00 0.00 40 1013.2
20260507201716 15 326 9.7 19.3 0.00 0.00 0.00 41 1013.2
20260507201216 15 316 6.4 12.9 0.00 0.00 0.00 41 1013.1
20260507200715 15 13 9.7 20.9 0.00 0.00 0.00 42 1013.2
20260507200215 15 333 8.0 19.3 0.00 0.00 0.00 45 1013.1
20260507195715 15 293 3.2 12.9 0.00 0.00 0.00 40 1013.2
20260507195215 15 322 6.4 16.1 0.00 0.00 0.00 38 1013.3
20260507194715 15 322 9.7 22.5 0.00 0.00 0.00 40 1013.4
20260507194214 15 326 9.7 17.7 0.00 0.00 0.00 44 1013.4
20260507193714 15 307 6.4 11.3 0.00 0.00 0.00 42 1013.5
20260507193214 15 273 8.0 20.9 0.00 0.00 0.00 45 1013.5
20260507192714 15 11 9.7 17.7 0.00 0.00 0.00 43 1013.4
20260507192213 15 294 8.0 20.9 0.00 0.00 0.00 41 1013.4
20260507191712 15 315 8.0 17.7 0.00 0.00 0.00 44 1013.3
20260507191210 15 336 9.7 19.3 0.00 0.00 0.00 41 1013.5
20260507190708 15 328 8.0 19.3 0.00 0.00 0.00 46 1013.4
20260507190208 15 330 9.7 19.3 0.00 0.00 0.00 44 1013.5
20260507185708 15 319 9.7 17.7 0.00 0.00 0.00 41 1013.6
20260507185208 15 315 11.3 19.3 0.00 0.00 0.00 45 1013.6
20260507184708 15 326 9.7 16.1 0.00 0.00 0.00 41 1013.6
20260507184207 14 319 8.0 16.1 0.00 0.00 0.00 47 1013.4
20260507183706 14 318 9.7 22.5 0.00 0.00 0.00 48 1013.8
20260507183205 14 329 11.3 20.9 0.00 0.00 0.00 43 1013.8
20260507182705 15 338 8.0 19.3 0.00 0.00 0.00 43 1013.7
20260507182205 14 293 9.7 16.1 0.00 0.00 0.00 49 1013.7
20260507181705 14 314 9.7 24.1 0.00 0.00 0.00 48 1013.8
20260507181204 14 325 11.3 20.9 0.00 0.00 0.00 41 1013.6
20260507180704 14 307 8.0 17.7 0.00 0.00 0.00 44 1013.9
20260507180204 14 13 9.7 17.7 0.00 0.00 0.00 45 1013.9
20260507175704 14 325 9.7 19.3 0.00 0.00 0.00 47 1013.9
20260507175204 14 332 8.0 17.7 0.00 0.00 0.00 48 1014.0
20260507174703 13 284 9.7 22.5 0.00 0.00 0.00 47 1014.0
20260507174203 13 266 9.7 17.7 0.00 0.00 0.00 45 1014.0
20260507173703 13 323 11.3 22.5 0.00 0.00 0.00 43 1014.1
20260507173203 13 295 11.3 25.7 0.00 0.00 0.00 45 1014.2
20260507172702 13 340 9.7 24.1 0.00 0.00 0.00 47 1014.2
20260507172202 13 326 8.0 19.3 0.00 0.00 0.00 47 1014.3
20260507171701 13 315 9.7 14.5 0.00 0.00 0.00 43 1014.4
20260507171201 13 274 9.7 19.3 0.00 0.00 0.00 45 1014.4
20260507170700 13 301 11.3 22.5 0.00 0.00 0.00 44 1014.5
20260507170200 13 314 9.7 22.5 0.00 0.00 0.00 44 1014.6
20260507165700 13 301 9.7 22.5 0.00 0.00 0.00 43 1014.6
20260507165200 13 271 8.0 22.5 0.00 0.00 0.00 41 1014.6
20260507164659 13 295 11.3 22.5 0.00 0.00 0.00 44 1014.6
20260507164159 13 316 6.4 17.7 0.00 0.00 0.00 49 1014.6
20260507163658 13 304 6.4 14.5 0.00 0.00 0.00 49 1014.7
20260507163158 13 287 8.0 22.5 0.00 0.00 0.00 50 1014.7
20260507162658 13 212 9.7 19.3 0.00 0.00 0.00 52 1014.7
20260507162158 12 271 8.0 17.7 0.00 0.00 0.00 49 1014.8
20260507161658 13 290 6.4 12.9 0.00 0.00 0.00 49 1014.8
20260507161157 12 281 8.0 14.5 0.00 0.00 0.00 48 1014.8
20260507160657 12 287 6.4 14.5 0.00 0.00 0.00 48 1014.8
20260507160155 12 228 6.4 16.1 0.00 0.00 0.00 50 1014.8
20260507155655 12 225 8.0 20.9 0.00 0.00 0.00 46 1014.9
20260507155155 12 238 8.0 20.9 0.00 0.00 0.00 49 1014.8
20260507154655 12 301 9.7 20.9 0.00 0.00 0.00 48 1014.9
20260507154154 12 298 8.0 19.3 0.00 0.00 0.00 46 1014.8
20260507153654 12 225 8.0 20.9 0.00 0.00 0.00 44 1014.8
20260507153154 12 277 3.2 8.0 0.00 0.00 0.00 46 1014.7
20260507152654 12 290 8.0 16.1 0.00 0.00 0.00 45 1014.7
20260507152154 12 1 8.0 20.9 0.00 0.00 0.00 46 1014.6
20260507151653 12 315 4.8 12.9 0.00 0.00 0.00 46 1014.6
20260507151152 12 255 8.0 16.1 0.00 0.00 0.00 51 1014.6
20260507150652 12 215 8.0 17.7 0.00 0.00 0.00 48 1014.6
20260507150150 11 318 9.7 16.1 0.00 0.00 0.00 48 1014.5
20260507145650 11 236 8.0 16.1 0.00 0.00 0.00 46 1014.6
20260507145150 11 294 8.0 17.7 0.00 0.00 0.00 48 1014.6
20260507144649 11 233 8.0 16.1 0.00 0.00 0.00 47 1014.6
20260507144149 11 280 8.0 16.1 0.00 0.00 0.00 50 1014.6
20260507143649 11 340 8.0 14.5 0.00 0.00 0.00 49 1014.5
20260507143149 11 276 8.0 17.7 0.00 0.00 0.00 47 1014.6
20260507142648 11 316 4.8 12.9 0.00 0.00 0.00 49 1014.6
20260507142148 11 274 8.0 16.1 0.00 0.00 0.00 48 1014.6
20260507141648 11 295 4.8 9.7 0.00 0.00 0.00 52 1014.6
20260507141148 11 314 6.4 12.9 0.00 0.00 0.00 51 1014.7
20260507140648 11 274 8.0 16.1 0.00 0.00 0.00 49 1014.7
20260507140145 11 295 6.4 12.9 0.00 0.00 0.00 50 1014.7
20260507135645 10 335 6.4 12.9 0.00 0.00 0.00 50 1014.7
20260507135145 10 307 6.4 17.7 0.00 0.00 0.00 50 1014.7
20260507134645 10 315 8.0 16.1 0.00 0.00 0.00 46 1014.7
20260507134145 11 290 6.4 20.9 0.00 0.00 0.00 49 1014.6
20260507133137 10 274 6.4 12.9 0.00 0.00 0.00 53 1014.7
20260507132637 10 319 4.8 12.9 0.00 0.00 0.00 54 1014.7
20260507132136 10 297 4.8 9.7 0.00 0.00 0.00 54 1014.7
20260507131636 10 309 4.8 9.7 0.00 0.00 0.00 56 1014.7
20260507131136 10 326 4.8 12.9 0.00 0.00 0.00 58 1014.7
20260507130636 10 291 6.4 14.5 0.00 0.00 0.00 60 1014.7
20260507130135 10 300 6.4 16.1 0.00 0.00 0.00 58 1014.7
20260507125633 9 305 1.6 9.7 0.00 0.00 0.00 62 1014.7
20260507125132 9 300 1.6 6.4 0.00 0.00 0.00 67 1014.7
20260507124631 8 226 0.0 3.2 0.00 0.00 0.00 68 1014.7
20260507124133 8 0 0.0 0.0 0.00 0.00 0.00 69 1014.7
20260507123128 8 0 0.0 0.0 0.00 0.00 0.00 76 1014.8
20260507122628 8 0 0.0 0.0 0.00 0.00 0.00 79 1014.8
20260507122127 7 0 0.0 0.0 0.00 0.00 0.00 81 1014.8
20260507121625 7 0 0.0 0.0 0.00 0.00 0.00 84 1014.7
20260507121122 7 269 0.0 3.2 0.00 0.00 0.00 86 1014.7
20260507120621 6 262 0.0 3.2 0.00 0.00 0.00 88 1014.6
20260507120121 6 288 1.6 4.8 0.00 0.00 0.00 90 1014.7
20260507115621 6 238 0.0 1.6 0.00 0.00 0.00 92 1014.7
20260507115116 5 267 0.0 1.6 0.00 0.00 0.00 93 1014.7
20260507114615 5 195 0.0 1.6 0.00 0.00 0.00 94 1014.8
20260507114115 5 0 0.0 0.0 0.00 0.00 0.00 94 1014.8
20260507113615 5 304 0.0 1.6 0.00 0.00 0.00 94 1014.8
20260507113113 4 0 0.0 0.0 0.00 0.00 0.00 95 1014.7
20260507112613 4 0 0.0 0.0 0.00 0.00 0.00 94 1014.6
20260507112111 4 0 0.0 0.0 0.00 0.00 0.00 95 1014.5
20260507111611 3 0 0.0 0.0 0.00 0.00 0.00 95 1014.5
20260507111111 3 13 0.0 3.2 0.00 0.00 0.00 95 1014.4
20260507110609 3 13 1.6 3.2 0.00 0.00 0.00 95 1014.4
20260507110108 3 0 0.0 0.0 0.00 0.00 0.00 95 1014.3
20260507105608 3 0 0.0 0.0 0.00 0.00 0.00 95 1014.2
20260507105152 3 0 0.0 0.0 0.00 0.00 0.00 95 1014.2
20260507105107 3 0 0.0 0.0 0.00 0.00 0.00 95 1014.2
20260507104606 3 0 0.0 0.0 0.00 0.00 0.00 95 1014.2
20260507104105 3 0 0.0 0.0 0.00 0.00 0.00 95 1014.1
20260507103605 3 0 0.0 0.0 0.00 0.00 0.00 95 1014.1
20260507103104 3 3 1.6 3.2 0.00 0.00 0.00 95 1014.1
20260507102102 3 7 3.2 3.2 0.00 0.00 0.00 95 1014.2
20260507101602 3 14 0.0 3.2 0.00 0.00 0.00 95 1014.1
20260507100559 4 0 0.0 0.0 0.00 0.00 0.00 94 1014.1
20260507100058 4 0 0.0 0.0 0.00 0.00 0.00 95 1014.1
20260507095557 4 0 0.0 0.0 0.00 0.00 0.00 95 1014.1
20260507095056 4 0 0.0 0.0 0.00 0.00 0.00 95 1014.2
20260507094555 4 0 0.0 0.0 0.00 0.00 0.00 95 1014.1
20260507094055 4 0 0.0 0.0 0.00 0.00 0.00 95 1014.0
20260507093554 4 0 0.0 0.0 0.00 0.00 0.00 94 1014.0
20260507093054 4 0 0.0 0.0 0.00 0.00 0.00 94 1014.0
20260507092554 4 0 0.0 0.0 0.00 0.00 0.00 94 1013.9
20260507092054 4 0 0.0 0.0 0.00 0.00 0.00 94 1013.9
20260507091551 5 0 0.0 0.0 0.00 0.00 0.00 94 1013.8
20260507091051 5 0 0.0 0.0 0.00 0.00 0.00 94 1013.8
20260507090550 5 0 0.0 0.0 0.00 0.00 0.00 94 1013.8
20260507090050 5 0 0.0 0.0 0.00 0.00 0.00 94 1013.8
20260507085548 5 0 0.0 0.0 0.00 0.00 0.00 94 1013.7
20260507085048 5 0 0.0 0.0 0.00 0.00 0.00 94 1013.8
20260507084546 5 0 0.0 0.0 0.00 0.00 0.00 94 1013.7
20260507084046 5 0 0.0 0.0 0.00 0.00 0.00 94 1013.6
20260507083546 5 0 0.0 0.0 0.00 0.00 0.00 94 1013.7
20260507083045 5 0 0.0 0.0 0.00 0.00 0.00 94 1013.7
20260507082545 5 0 0.0 0.0 0.00 0.00 0.00 94 1013.6
20260507082045 5 0 0.0 0.0 0.00 0.00 0.00 94 1013.5
20260507081544 5 18 0.0 1.6 0.00 0.00 0.00 94 1013.6
20260507081043 5 23 0.0 3.2 0.00 0.00 0.00 94 1013.6
20260507080543 5 24 0.0 3.2 0.00 0.00 0.00 94 1013.6
20260507080043 5 0 0.0 0.0 0.00 0.00 0.00 94 1013.6
20260507075542 5 0 0.0 0.0 0.00 0.00 0.00 94 1013.6
20260507075041 5 356 0.0 1.6 0.00 0.00 0.00 94 1013.6
20260507074541 5 14 1.6 4.8 0.00 0.00 0.00 94 1013.6
20260507074041 5 20 0.0 3.2 0.00 0.00 0.00 94 1013.6
20260507073540 5 0 0.0 0.0 0.00 0.00 0.00 94 1013.6
20260507072539 5 0 0.0 0.0 0.00 0.00 0.00 94 1013.6
20260507072039 6 0 0.0 0.0 0.00 0.00 0.00 94 1013.6
20260507071538 6 0 0.0 0.0 0.00 0.00 0.00 93 1013.7
20260507071037 6 0 0.0 0.0 0.00 0.00 0.00 94 1013.6
20260507070537 6 0 0.0 0.0 0.00 0.00 0.00 93 1013.6
20260507070036 6 0 0.0 0.0 0.00 0.00 0.00 93 1013.7
20260507065536 6 0 0.0 0.0 0.00 0.00 0.00 93 1013.7
20260507065036 6 0 0.0 0.0 0.00 0.00 0.00 93 1013.7
20260507064536 6 0 0.0 0.0 0.00 0.00 0.00 93 1013.8
20260507064035 6 0 0.0 0.0 0.00 0.00 0.00 93 1013.8
20260507063534 6 0 0.0 0.0 0.00 0.00 0.00 93 1013.8
20260507063034 6 0 0.0 0.0 0.00 0.00 0.00 93 1013.8
20260507062531 6 0 0.0 0.0 0.00 0.00 0.00 93 1013.7
20260507062030 7 0 0.0 0.0 0.00 0.00 0.00 93 1013.8
20260507061028 7 0 0.0 0.0 0.00 0.00 0.00 92 1013.8
20260507060527 7 0 0.0 0.0 0.00 0.00 0.00 92 1013.8
20260507060027 7 0 0.0 0.0 0.00 0.00 0.00 92 1013.8
20260507055527 7 0 0.0 0.0 0.00 0.00 0.00 92 1013.8
20260507055027 7 0 0.0 0.0 0.00 0.00 0.00 92 1013.8
20260507054526 7 0 0.0 0.0 0.00 0.00 0.00 92 1013.9
20260507054026 7 0 0.0 0.0 0.00 0.00 0.00 92 1013.9
20260507053525 7 0 0.0 0.0 0.00 0.00 0.00 92 1013.8
20260507053024 7 0 0.0 0.0 0.00 0.00 0.00 91 1013.8
20260507052524 7 0 0.0 0.0 0.00 0.00 0.00 91 1013.8
20260507052024 7 0 0.0 0.0 0.00 0.00 0.00 91 1013.9
20260507051523 7 0 0.0 0.0 0.00 0.00 0.00 91 1014.0
20260507051023 7 0 0.0 0.0 0.00 0.00 0.00 91 1014.0
20260507050523 7 0 0.0 0.0 0.00 0.00 0.00 91 1014.1
20260507050023 7 0 0.0 0.0 0.00 0.00 0.00 91 1014.1
20260507045521 7 0 0.0 0.0 0.00 0.00 0.00 91 1014.1
20260507045021 7 38 0.0 3.2 0.00 0.00 0.00 91 1014.0
20260507044520 7 17 1.6 4.8 0.00 0.00 0.00 91 1013.9
20260507044020 7 323 1.6 3.2 0.00 0.00 0.00 91 1013.9
20260507043519 7 10 1.6 3.2 0.00 0.00 0.00 91 1013.8
20260507043018 7 0 0.0 0.0 0.00 0.00 0.00 91 1013.9
20260507042518 8 8 1.6 3.2 0.00 0.00 0.00 91 1013.9
20260507042018 8 10 3.2 3.2 0.00 0.00 0.00 91 1013.9
20260507041518 8 13 1.6 3.2 0.00 0.00 0.00 91 1013.8
20260507041017 8 7 1.6 3.2 0.00 0.00 0.00 91 1013.8
20260507040517 7 4 3.2 4.8 0.00 0.00 0.00 91 1013.7
20260507040017 7 14 1.6 3.2 0.00 0.00 1.19 90 1013.8
20260507035517 8 11 1.6 3.2 0.00 0.00 1.19 90 1013.8
20260507034516 8 11 3.2 3.2 0.00 0.00 1.19 89 1013.8
20260507034016 8 13 3.2 4.8 0.00 0.00 1.19 89 1013.7
20260507033014 8 14 1.6 4.8 0.00 0.00 1.19 88 1013.8
20260507032514 8 17 3.2 3.2 0.00 0.00 1.19 88 1013.8
20260507032017 8 10 1.6 4.8 0.00 0.00 1.19 88 1013.8
20260507031509 8 0 0.0 0.0 0.00 0.00 1.19 88 1013.8
20260507031009 8 0 0.0 0.0 0.00 0.00 1.19 87 1013.9
20260507030508 8 0 0.0 0.0 0.00 0.00 1.19 87 1013.9
20260507025506 8 0 0.0 0.0 0.00 0.00 1.19 86 1013.9
20260507025006 8 0 0.0 0.0 0.00 0.00 1.19 85 1013.9
20260507024505 8 15 1.6 3.2 0.00 0.00 1.19 85 1013.9
20260507023504 8 13 3.2 4.8 0.00 0.00 1.19 84 1013.9
20260507023004 9 7 1.6 3.2 0.00 0.00 1.19 84 1013.9
20260507022503 9 0 0.0 0.0 0.00 0.00 1.19 82 1013.9
20260507022003 9 24 0.0 1.6 0.00 0.00 1.19 81 1013.9
20260507021503 9 24 0.0 0.0 0.00 0.00 1.19 80 1013.8
20260507021002 10 0 0.0 0.0 0.00 0.00 1.19 79 1013.7
20260507020501 10 0 0.0 0.0 0.00 0.00 1.19 78 1013.6
20260507020000 10 0 0.0 0.0 0.00 0.00 1.19 78 1013.6
20260507015500 10 0 0.0 0.0 0.00 0.00 1.19 77 1013.5
20260507014959 10 0 0.0 0.0 0.00 0.00 1.19 77 1013.5
20260507014458 10 304 0.0 3.2 0.00 0.00 1.19 78 1013.4
20260507013958 10 347 0.0 3.2 0.00 0.00 1.19 79 1013.4
20260507013458 10 332 0.0 0.0 0.00 0.00 1.19 80 1013.3
20260507012957 10 180 0.0 4.8 0.00 0.00 1.19 80 1013.2
20260507012456 10 0 0.0 0.0 0.00 0.00 1.19 79 1013.2
20260507011956 10 0 0.0 0.0 0.00 0.00 1.19 78 1013.3
20260507011456 10 0 0.0 0.0 0.00 0.00 1.19 76 1013.2
20260507010954 10 0 0.0 0.0 0.00 0.00 1.19 75 1013.3
20260507010453 10 0 0.0 0.0 0.00 0.00 1.19 73 1013.2
20260507005453 11 0 0.0 0.0 0.00 0.00 1.19 69 1013.3